TimeEST,TemperatureF,Dew PointF,Humidity,Sea Level PressureIn,VisibilityMPH,Wind Direction,Wind SpeedMPH,Gust SpeedMPH,PrecipitationIn,Events,Conditions,WindDirDegrees,DateUTC
12:56 AM,30.0,21.9,72,30.33,10.0,Calm,Calm,-,N/A,,Clear,0,2013-01-05 05:56:00
1:56 AM,28.0,21.9,78,30.34,10.0,Calm,Calm,-,N/A,,Clear,0,2013-01-05 06:56:00
2:56 AM,27.0,23.0,85,30.34,10.0,Calm,Calm,-,N/A,,Clear,0,2013-01-05 07:56:00
3:56 AM,27.0,21.9,81,30.32,10.0,Calm,Calm,-,N/A,,Clear,0,2013-01-05 08:56:00
4:56 AM,26.1,21.9,84,30.33,10.0,Calm,Calm,-,N/A,,Clear,0,2013-01-05 09:56:00
5:56 AM,26.1,21.9,84,30.35,10.0,Calm,Calm,-,N/A,,Clear,0,2013-01-05 10:56:00
6:56 AM,26.1,23.0,88,30.37,10.0,Calm,Calm,-,N/A,,Clear,0,2013-01-05 11:56:00
7:56 AM,25.0,21.9,88,30.39,10.0,Calm,Calm,-,N/A,,Clear,0,2013-01-05 12:56:00
9:56 AM,37.9,30.0,73,30.41,10.0,Calm,Calm,-,N/A,,Clear,0,2013-01-05 14:56:00
10:56 AM,41.0,26.1,55,30.41,10.0,SW,3.5,-,N/A,,Clear,230,2013-01-05 15:56:00
11:56 AM,44.1,25.0,47,30.38,10.0,SW,5.8,-,N/A,,Clear,230,2013-01-05 16:56:00
12:56 PM,46.0,23.0,40,30.35,10.0,SSW,5.8,-,N/A,,Clear,210,2013-01-05 17:56:00
1:56 PM,46.9,21.9,37,30.31,10.0,WSW,5.8,-,N/A,,Clear,250,2013-01-05 18:56:00
2:56 PM,46.9,23.0,39,30.30,10.0,WSW,4.6,-,N/A,,Clear,250,2013-01-05 19:56:00
3:56 PM,48.9,23.0,36,30.29,10.0,Calm,Calm,-,N/A,,Clear,0,2013-01-05 20:56:00
4:56 PM,48.0,25.0,41,30.30,10.0,Calm,Calm,-,N/A,,Clear,0,2013-01-05 21:56:00
5:56 PM,45.0,28.0,52,30.30,10.0,Calm,Calm,-,N/A,,Scattered Clouds,0,2013-01-05 22:56:00
6:56 PM,45.0,30.0,56,30.30,10.0,Calm,Calm,-,N/A,,Overcast,0,2013-01-05 23:56:00
7:56 PM,43.0,36.0,76,30.32,10.0,Calm,Calm,-,N/A,,Overcast,0,2013-01-06 00:56:00
8:56 PM,43.0,34.0,71,30.34,10.0,WSW,4.6,-,0.00,Rain,Light Rain,240,2013-01-06 01:56:00
9:56 PM,42.1,37.9,85,30.29,10.0,Calm,Calm,-,0.00,,Overcast,0,2013-01-06 02:56:00
10:56 PM,43.0,37.0,80,30.27,10.0,WNW,3.5,-,0.00,,Overcast,290,2013-01-06 03:56:00
11:56 PM,42.1,39.0,89,30.26,10.0,SW,3.5,-,0.01,Rain,Light Rain,230,2013-01-06 04:56:00